Regional Weather Roundup
Issued by NWS Jackson, KY

Home | Current Version | Previous Version | Text Only | Print | Product List | Glossary Off
Versions: 1 2 3 4 5 6 7 8 9 10 11 12 13 14 15 16 17 18 19 20 21 22 23 24 25 26 27 28 29 30 31 32 33 34 35 36 37 38 39 40 41 42 43 44 45 46 47 48 49 50

000
ASUS43 KJKL 201810
RWRJKL

EAST KENTUCKY HOURLY WEATHER ROUNDUP
NATIONAL WEATHER SERVICE JACKSON KY
100 PM EST SAT DEC 20 2014

NOTE: "FAIR" INDICATES FEW OR NO CLOUDS BELOW 12,000 FEET WITH
NO SIGNIFICANT WEATHER AND/OR OBSTRUCTIONS TO VISIBILITY.

* THESE REPORTS ARE NOT UNDER NWS QUALITY CONTROL AND MAY NOT
  REPORT WEATHER SUCH AS PRECIPITATION AND FOG.

KYZ079-080-083-085-087-088-110-112-115-119-120-201900
...EASTERN KENTUCKY...

CITY           SKY/WX    TMP DP  RH WIND       PRES   REMARKS
JACKSON        PTSUNNY   37  26  64 CALM      30.20F
6HR MIN TEMP:  27; 6HR MAX TEMP:  37;

LONDON         CLOUDY    38  27  64 W3        30.22F
6HR MIN TEMP:  30; 6HR MAX TEMP:  38;

SOMERSET*      CLOUDY    36  28  75 CALM      30.25F
MONTICELLO*    CLOUDY    40  28  62 CALM      30.26F
6HR MIN TEMP:  30; 6HR MAX TEMP:  40; 6HR PCP: TRACE;

MIDDLESBORO*   CLOUDY    41  33  72 CALM      30.21F
HARLAN APT*    CLOUDY    41  30  65 CALM      30.18F
HAZARD APT*    CLOUDY    36  27  69 CALM      30.21F
PIKEVILLE APT* CLOUDY    34  28  80 CALM      30.19F
BIG SANDY*     CLOUDY    34  27  76 W3        30.22S
6HR MIN TEMP:  27; 6HR MAX TEMP:  34;

MOREHEAD APT*  CLOUDY    32  27  80 N5        30.26F WCI  27
$$

KYZ035-036-041-042-044-050-067-078-099-201900
...CENTRAL KENTUCKY...

CITY           SKY/WX    TMP DP  RH WIND       PRES   REMARKS
MT STERLING*   CLOUDY    32  27  80 CALM      30.25F
FLEMING/MASON* CLOUDY    30  27  86 CALM      30.26F
DANVILLE*      CLOUDY    34  27  75 CALM      30.26S
RICHMOND*      CLOUDY    34  27  75 CALM      30.23F
LEXINGTON      CLOUDY    35  25  66 N3        30.25F
6HR MIN TEMP:  28; 6HR MAX TEMP:  36;

FRANKFORT      CLOUDY    34  24  67 CALM      30.25F
6HR MIN TEMP:  28; 6HR MAX TEMP:  34;

$$

KYZ091>093-OHZ055-061-077-WVZ005-015-034-035-042-201900
...SOUTHERN OHIO/WEST VIRGINIA...

CITY           SKY/WX    TMP DP  RH WIND       PRES   REMARKS
COVINGTON      CLOUDY    32  23  69 CALM      30.26F
COLUMBUS       CLOUDY    31  22  69 CALM      30.26F
DAYTON         CLOUDY    31  22  69 CALM      30.27F
WILMINGTON     CLOUDY    29  22  75 CALM      30.25F
HUNTINGTON     PTSUNNY   34  25  69 CALM      30.24F
CHARLESTON     CLOUDY    34  24  67 CALM      30.22F
PINEVILLE*     LGT SNOW  37  33  87 MISG      30.23S
BECKLEY        CLOUDY    35  27  72 W3        30.14F
BLUEFIELD      CLOUDY    35  28  75 CALM      30.14F
$$

VAZ002-007-008-TNZ017-027-036-066-071-201900
...SOUTHWEST VIRGINIA/EAST TENNESSEE...

CITY           SKY/WX    TMP DP  RH WIND       PRES   REMARKS
WISE*          CLOUDY    36  32  87 SW3       30.14F
JONESVILLE*    CLEAR     41  30  65 CALM      30.21F
ABINGDON*      CLOUDY    40  35  81 CALM      30.16F
BRISTOL        CLOUDY    43  36  76 CALM      30.17F
KNOXVILLE      CLOUDY    41  31  67 CALM      30.20F
OAK RIDGE      CLOUDY    45  32  60 S3        30.22F
CROSSVILLE     PTSUNNY   44  28  53 VRB3      30.18F
NASHVILLE      PTSUNNY   45  27  49 CALM      30.25F
$$

...KEY TO REMARKS...
VSB - VISIBILITY IN MILES
WCI - WIND CHILL INDEX
HX  - HEAT INDEX

$$


USA.gov is the U.S. government's official web portal to all federal, state and local government web resources and services.